STARLINK-36832, 68805

Orbit data source: Space-Track

STARLINK-36832, 68805 is a payload satellite owned by SpaceX/Seattle (US) in SSO that was launched on Thu, 23 Apr 2026 UTC via an FALCON 9 launch vehicle from the Air Force Western Test Range (AFWTR). Payload-class satellites include a variety of spacecraft equipped with specific instruments for various scientific and technological missions. These include communications satellites like Starlink; space stations such as the ISS; scientific satellites like the Hubble; Earth observation satellites from companies like Planet Labs, Umbra, and HawkEye 360; GPS; miniature CubeSats for education and research; and military/defense satellites.

Loading next visibility...
Identifier
68805, 2026-089D
Orbit
SSO
Country
Flag of USUS
Related business
Manufacturer
SpaceX/Seattle
Mission
Operational spacecraft
Bus & Motor
STARLINK V2MO, Unknown motor
Mass
575 kg wet, ~530 kg dry
Launch date (UTC)
2026-04-23 (2 months ago)
Launch vehicle
FALCON 9
Launch site
Air Force Western Test Range (AFWTR)
Object type
Payload
Rocket body
Debris
Shape & HBR
Unknown shape, 14.5 m
Radar Cross Section
Large (>1 m²)

Expand to show TLE details & history
Last TLE update: 1 day ago

TLE from 1 day ago
0 STARLINK-36832
1 68805U 26089D   26170.56520193  .00009933  00000-0  30946-3 0  9998
2 68805  97.2852  17.5994 0001560 118.6172 241.5228 15.33458548  9015
Epoch: 2026-06-19T13:33Z
TLE epoch observation values (Epoch: 2026-06-19T13:33:53.446Z)
Latitude
-0.00002°
Longitude
-93.66564°
Altitude
469.124 km
Speed
7.631 km/s
True Right ascension
01h 10m 23s
True Declination
0° 00' 00"
Sunlit
Object was in daylight at epoch
Visualization orbit readout
Latitude
Unknown
Longitude
Unknown
Altitude
Unknown
Speed
Unknown
Apparent Right ascension
Unknown
Apparent Declination
Unknown
Sunlit
N/A
Visualization observer readout
Local Sidereal Time
07:23:46
Azimuth
Unknown
Elevation
Unknown
Doppler factor
Unknown
Orbital elements
Apogee altitude
463.513 km
Perigee altitude
461.378 km
Semi-major axis
6,840.583 km
Eccentricity
0.00016
Inclination
97.2852°
RAAN
17.5994°
Arg. of periapsis
118.6172°
True anomaly
241.50709°
Mean anomaly
241.5228°
Eccentric anomaly
241.51494°
Mean motion
3.83622 °/min
Orbital period
93.84 mins
BSTAR
0.00030946
Loading maneuver chart data...
Computing Atmospheric mass density...
Loading historical data...
Loading historical data...
Loading historical data...
Loading historical data...
Loading historical data...
Loading historical data...
Loading historical data...

Documentation

Showing up to 5 results
|